LDPE-2

Last updated on Wed Sep 17 2025 00:02:51 GMT+0000 (Coordinated Universal Time)

1 54219U 22144A 25259.43171801 -.00000280 00000+0 00000+0 0 9991 2 54219 4.9723 65.0771 0007446 163.5776 235.8199 1.00540246 9075
UTC large
Height (km)
Speed (km/s)
/
Latitude / Longitude
Inclination (degrees)
Orbital Period (minutes)
Azimuth
Elevation
Range (km)
Doppler Factor

Next 0 passes for location: London (51.5072 / 0.1276)

Sorry there are no passes over London.